Current weather by "City, St" or "zip code"  
 

Current Conditions: Zephyrhills Airport, FL

Thunderstorm Heavy Rain Fog/Mist


76.0 F

Last Updated on Jul 3 2022, 2:55 pm EDT
Humidity: 95%
Wind Speed: W 19.6 G 24.2 mph
Barometer 30.15 in
Dewpoint: 74.1 F
Visibility: 1.25 mi
Precip: 01.11 in
Heat Index: NA
Wind Chill: NA
Current conditions at:

Zephyrhills Airport, FL (KZPH)

Lat: 28.2281 Lon: 82.1559

Local Radar Image active severe weather and emergency alerts image image weather storm and storm spotter reports image weather observation monitoring service image
Local
Radar
Active
Alerts
Storm Reports Obs
Monitoring

Sign-up For Email & Text Message Weather Alert Notification Services



Advertise Here

Observation History for Zephyrhills Airport, FL


Time Wind
(mph)
Vis
(mi)
Weather Precip (in) Temperature (F) Relative
Humidity
Wind
Chill
(F)
Heat
Index
(F)
Pressure
Air Dwpt altimeter
(in)
sea level
(mb)
Rmks
2:55 pm EDT W 19.6 G 24.2 1.25 Thunderstorm Heavy Rain Fog/Mist 01.11 76.0 74.1 95% NA NA 30.15 M
2:35 pm EDT SW 20.7 G 31.1 3.00 Thunderstorm Heavy Rain and Breezy 00.10 82.0 75.0 78% NA 88 30.11 M
2:15 pm EDT S 9.2 10.00 Thunderstorm in Vicinity -- 91.0 75.2 59% NA 102 30.09 M
1:55 pm EDT S 9.2 10.00 Fair -- 91.0 74.5 59% NA 102 30.11 M
1:35 pm EDT S 9.2 10.00 Thunderstorm in Vicinity -- 89.0 75.0 63% NA 99 30.11 M
1:15 pm EDT S 8.1 10.00 Fair -- 89.0 75.9 66% NA 101 30.11 M
12:55 pm EDT S 6.9 10.00 Partly Cloudy -- 87.0 73.6 64% NA 95 30.12 M
12:35 pm EDT S 6.9 10.00 Mostly Cloudy -- 85.0 75.7 74% NA 94 30.12 M
12:15 pm EDT S 9.2 G 18.4 10.00 Light Rain -- 83.0 74.5 75% NA 90 30.13 M
11:55 am EDT SW 4.6 10.00 Mostly Cloudy -- 89.0 74.3 62% NA 98 30.13 M
11:35 am EDT S 5.8 10.00 Partly Cloudy -- 88.0 74.3 63% NA 97 30.13 M
11:15 am EDT SW 6.9 10.00 Partly Cloudy -- 86.0 75.4 71% NA 95 30.13 M
10:55 am EDT S 6.9 10.00 Partly Cloudy -- 86.0 75.4 71% NA 95 30.13 M
10:35 am EDT S 9.2 10.00 Partly Cloudy -- 86.0 76.3 73% NA 97 30.13 M
10:15 am EDT S 10.4 10.00 Partly Cloudy -- 85.0 76.3 75% NA 94 30.13 M
9:55 am EDT S 9.2 10.00 Partly Cloudy -- 84.0 77.0 79% NA 93 30.13 M
9:35 am EDT S 8.1 10.00 Fair -- 83.0 76.3 81% NA 92 30.13 M
9:15 am EDT S 5.8 10.00 Fair -- 82.0 76.8 85% NA 90 30.13 M
8:55 am EDT S 5.8 10.00 Fair -- 79.0 76.6 91% NA NA 30.13 M
8:35 am EDT SE 4.6 10.00 Fair -- 77.0 76.1 96% NA NA 30.12 M
8:15 am EDT N 0.0 10.00 Fair -- 76.0 75.4 99% NA NA 30.12 M
7:55 am EDT N 0.0 10.00 Fair -- 74.0 74.1 99% NA NA 30.11 M
7:35 am EDT N 0.0 10.00 Fair -- 74.0 73.2 99% NA NA 30.11 M
7:15 am EDT N 0.0 7.00 Fair -- 72.0 71.8 99% NA NA 30.10 M

Regional Weather Observation


Brooksville-Tampa Bay Regional Airport, FL (KBKV)

Thunderstorm
83.0 F

Tampa, Vandenberg Airport, FL (KVDF)

Light Rain
NULL F

Plant City, Plant City Municipal Airport, FL (KPCM)

Mostly Cloudy
84.0 F

Inverness Airport, FL (KINF)

Light Rain
77.0 F

Crystal River Airport, FL (KCGC)

Partly Cloudy
88.0 F

Leesburg International Airport, FL (KLEE)

Thunderstorm Heavy Rain Fog/Mist
75.0 F

Advertise Here


Advertise Here